DW9972 Weather Reports


Display with metric or nautical units.
time (UTC)temp
F
wind
direction
speed
MPH
gust
MPH
rain 1hr
in
rain 24hr
in
rain mn
in
humidity
%
barometer
mb
20260508023332 54 232 2.0 4.0 0.00 0.02 0.02 65 1015.0
20260508022840 54 215 2.0 4.0 0.00 0.02 0.02 65 1015.2
20260508022330 54 212 2.0 5.0 0.00 0.02 0.02 65 1015.0
20260508021839 54 238 3.0 6.0 0.00 0.02 0.02 65 1015.1
20260508021336 55 214 4.0 6.0 0.00 0.02 0.02 65 1015.1
20260508020842 55 228 3.0 5.0 0.00 0.02 0.02 65 1015.1
20260508020356 56 200 3.0 5.0 0.00 0.02 0.02 63 1015.0
20260508015837 56 228 1.0 3.0 0.00 0.02 0.02 63 1015.0
20260508015344 56 228 1.0 3.0 0.00 0.02 0.02 63 1015.0
20260508014833 56 229 2.0 3.0 0.00 0.02 0.02 64 1015.0
20260508014351 56 226 2.0 3.0 0.00 0.02 0.02 63 1014.9
20260508013839 57 248 2.0 3.0 0.00 0.02 0.02 63 1014.9
20260508013331 57 248 2.0 7.0 0.00 0.02 0.02 64 1014.9
20260508012845 57 246 2.0 7.0 0.00 0.02 0.02 64 1014.9
20260508012331 57 259 3.0 5.0 0.00 0.02 0.02 65 1014.8
20260508011840 57 234 3.0 5.0 0.00 0.02 0.02 65 1014.9
20260508011335 57 189 1.0 4.0 0.00 0.02 0.02 68 1015.0
20260508010842 57 188 2.0 5.0 0.00 0.02 0.02 70 1015.0
20260508010330 57 149 2.0 5.0 0.00 0.02 0.02 71 1015.0
20260508005837 57 88 0.0 4.0 0.00 0.02 0.02 72 1014.9
20260508005355 56 101 2.0 5.0 0.00 0.02 0.02 72 1015.1
20260508004838 55 132 2.0 5.0 0.00 0.02 0.02 75 1015.1
20260508004346 55 289 3.0 4.0 0.00 0.02 0.02 74 1015.6
20260508003835 55 290 2.0 3.0 0.00 0.02 0.02 74 1015.5
20260508003337 55 229 0.0 2.0 0.00 0.02 0.02 75 1015.3
20260508002849 55 229 1.0 2.0 0.00 0.02 0.02 75 1015.4
20260508002338 55 232 1.0 5.0 0.00 0.02 0.02 75 1015.5
20260508001828 55 233 3.0 5.0 0.01 0.02 0.02 72 1015.5
20260508001334 55 13 2.0 2.0 0.01 0.02 0.02 71 1015.3
20260508000842 55 15 1.0 3.0 0.01 0.02 0.02 72 1015.1
20260508000350 55 14 1.0 3.0 0.01 0.02 0.02 70 1015.2
20260507235856 55 323 1.0 4.0 0.01 0.02 0.02 69 1015.0
20260507235325 55 355 2.0 4.0 0.01 0.02 0.02 71 1015.0
20260507234841 55 355 1.0 4.0 0.01 0.02 0.02 73 1015.0
20260507234328 54 339 1.0 6.0 0.01 0.02 0.02 75 1015.1
20260507233835 53 313 3.0 6.0 0.01 0.02 0.02 78 1015.2
20260507233334 53 328 3.0 8.0 0.01 0.02 0.02 76 1015.2
20260507232840 53 324 3.0 11.0 0.01 0.02 0.02 77 1014.9
20260507232335 53 325 5.0 11.0 0.01 0.02 0.02 74 1015.0
20260507231904 53 326 5.0 9.0 0.00 0.01 0.01 75 1014.8
20260507231330 53 345 5.0 13.0 0.00 0.01 0.01 78 1014.8
20260507230841 54 328 6.0 15.0 0.00 0.01 0.01 77 1014.8
20260507230330 55 35 7.0 21.0 0.00 0.01 0.01 72 1014.8
20260507225839 57 339 11.0 23.0 0.00 0.01 0.01 61 1014.9
20260507225344 59 15 7.0 23.0 0.00 0.01 0.01 57 1014.9
20260507224850 60 335 8.0 23.0 0.00 0.01 0.01 56 1014.9
20260507224340 62 325 5.0 12.0 0.00 0.01 0.01 52 1014.6
20260507223848 61 60 3.0 11.0 0.00 0.01 0.01 52 1014.5
20260507223336 62 323 5.0 10.0 0.00 0.01 0.01 53 1014.5
20260507222844 61 360 4.0 9.0 0.00 0.01 0.01 51 1014.5
20260507222339 61 335 4.0 6.0 0.00 0.01 0.01 50 1014.5
20260507221845 61 343 3.0 5.0 0.00 0.01 0.01 51 1014.4
20260507221334 61 63 2.0 9.0 0.00 0.01 0.01 50 1014.4
20260507220847 61 22 3.0 9.0 0.00 0.01 0.01 51 1014.4
20260507220335 61 78 2.0 4.0 0.00 0.01 0.01 57 1014.5
20260507215824 60 28 2.0 5.0 0.00 0.01 0.01 55 1014.6
20260507215337 60 328 1.0 9.0 0.00 0.01 0.01 55 1014.5
20260507214851 60 66 2.0 10.0 0.00 0.01 0.01 54 1014.6
20260507214340 60 321 6.0 10.0 0.00 0.01 0.01 52 1014.7
20260507213833 60 42 2.0 5.0 0.00 0.01 0.01 54 1014.7
20260507213342 60 355 3.0 6.0 0.00 0.01 0.01 53 1014.8
20260507212840 59 321 4.0 6.0 0.00 0.01 0.01 54 1014.9
20260507212334 59 319 4.0 6.0 0.00 0.01 0.01 54 1014.9
20260507211850 60 313 4.0 10.0 0.00 0.01 0.01 53 1015.0
20260507211340 60 315 5.0 13.0 0.00 0.01 0.01 53 1014.9
20260507210900 60 19 7.0 13.0 0.00 0.01 0.01 52 1014.9
20260507210330 60 9 3.0 9.0 0.00 0.01 0.01 52 1014.9
20260507205833 60 26 4.0 9.0 0.00 0.01 0.01 51 1014.9
20260507205346 61 318 0.0 6.0 0.00 0.01 0.01 51 1014.9
20260507204853 61 310 4.0 9.0 0.00 0.01 0.01 50 1014.9
20260507204340 61 328 6.0 9.0 0.00 0.01 0.01 49 1014.8
20260507203828 61 351 1.0 3.0 0.00 0.01 0.01 52 1014.7
20260507203345 61 298 1.0 5.0 0.00 0.01 0.01 51 1014.9
20260507202836 60 312 2.0 5.0 0.00 0.01 0.01 53 1015.0
20260507202346 60 40 2.0 8.0 0.00 0.01 0.01 55 1014.9
20260507201832 60 342 4.0 8.0 0.00 0.01 0.01 55 1014.9
20260507201333 60 321 3.0 9.0 0.00 0.01 0.01 54 1014.9
20260507200838 60 323 6.0 9.0 0.00 0.01 0.01 53 1015.0
20260507200327 61 355 2.0 8.0 0.00 0.01 0.01 55 1015.0
20260507195904 61 331 4.0 8.0 0.00 0.01 0.01 55 1015.0
20260507195337 61 346 1.0 6.0 0.00 0.01 0.01 54 1015.0
20260507194844 61 67 2.0 10.0 0.00 0.01 0.01 56 1014.9
20260507194327 60 67 3.0 10.0 0.00 0.01 0.01 59 1015.0
20260507193842 59 81 4.0 10.0 0.00 0.01 0.01 58 1015.0
20260507193350 59 36 2.0 5.0 0.00 0.01 0.01 59 1015.0
20260507192837 58 347 2.0 6.0 0.00 0.01 0.01 59 1015.2
20260507192401 57 327 3.0 6.0 0.00 0.01 0.01 62 1015.2
20260507191833 57 310 3.0 8.0 0.00 0.01 0.01 61 1015.1
20260507191350 57 325 3.0 8.0 0.00 0.01 0.01 63 1015.2
20260507190838 57 84 3.0 10.0 0.00 0.01 0.01 64 1015.3
20260507190328 57 309 6.0 10.0 0.00 0.01 0.01 64 1015.4
20260507185833 57 340 4.0 14.0 0.00 0.01 0.01 63 1015.3
20260507185343 57 318 6.0 14.0 0.00 0.01 0.01 64 1015.4
20260507184851 58 345 8.0 14.0 0.00 0.01 0.01 62 1015.5
20260507184342 58 340 4.0 15.0 0.00 0.01 0.01 63 1015.5
20260507183902 57 312 6.0 15.0 0.00 0.01 0.01 63 1015.6
20260507183329 57 313 5.0 12.0 0.00 0.01 0.01 62 1015.8
20260507182836 58 346 5.0 12.0 0.00 0.01 0.01 59 1015.7
20260507182350 59 325 7.0 14.0 0.00 0.01 0.01 52 1015.7
20260507181846 59 300 6.0 14.0 0.00 0.01 0.01 47 1015.6
20260507181358 59 273 6.0 13.0 0.00 0.01 0.01 48 1015.5
20260507180845 59 298 6.0 12.0 0.00 0.01 0.01 48 1015.5
20260507180339 59 269 3.0 9.0 0.00 0.01 0.01 53 1015.5
20260507175829 59 342 2.0 7.0 0.00 0.01 0.01 54 1015.5
20260507175328 59 232 4.0 7.0 0.00 0.01 0.01 53 1015.4
20260507174837 59 290 2.0 4.0 0.00 0.01 0.01 61 1015.3
20260507174340 59 319 2.0 4.0 0.00 0.01 0.01 56 1015.4
20260507173849 59 76 1.0 4.0 0.00 0.01 0.01 57 1015.3
20260507173337 59 312 2.0 4.0 0.00 0.01 0.01 57 1015.3
20260507172836 59 300 1.0 6.0 0.00 0.01 0.01 56 1015.3
20260507172342 59 339 3.0 6.0 0.00 0.01 0.01 58 1015.2
20260507171832 59 150 2.0 8.0 0.00 0.01 0.01 57 1015.1
20260507171324 59 317 4.0 9.0 0.00 0.01 0.01 59 1015.2
20260507170832 59 320 3.0 14.0 0.00 0.01 0.01 60 1015.2
20260507170341 59 317 9.0 14.0 0.00 0.01 0.01 61 1015.2
20260507165828 58 46 3.0 8.0 0.00 0.01 0.01 64 1015.2
20260507165335 58 49 5.0 8.0 0.00 0.01 0.01 63 1015.3
20260507164827 58 325 5.0 8.0 0.00 0.01 0.01 62 1015.2
20260507164335 58 340 2.0 8.0 0.00 0.01 0.01 67 1015.2
20260507163826 58 355 4.0 6.0 0.00 0.01 0.01 61 1015.2
20260507163334 59 44 2.0 10.0 0.00 0.01 0.01 58 1015.0
20260507162852 59 319 4.0 10.0 0.00 0.01 0.01 53 1015.1
20260507162334 59 270 1.0 9.0 0.00 0.01 0.01 55 1015.1
20260507161842 59 240 4.0 12.0 0.00 0.01 0.01 54 1015.2
20260507161349 59 251 6.0 15.0 0.00 0.01 0.01 48 1015.2
20260507160829 59 319 8.0 15.0 0.00 0.01 0.01 48 1015.1
20260507160336 59 225 4.0 10.0 0.00 0.01 0.01 50 1015.2
20260507155856 59 337 2.0 9.0 0.00 0.01 0.01 52 1015.1
20260507155323 58 292 5.0 11.0 0.00 0.01 0.01 54 1015.2
20260507154835 58 338 3.0 11.0 0.00 0.01 0.01 56 1015.1
20260507154323 56 234 3.0 12.0 0.00 0.01 0.01 60 1015.1
20260507153841 55 234 1.0 4.0 0.00 0.01 0.01 69 1015.2
20260507153329 54 55 0.0 2.0 0.00 0.01 0.01 68 1015.3
20260507152846 54 53 0.0 2.0 0.00 0.01 0.01 70 1015.2
20260507152340 53 55 0.0 3.0 0.00 0.01 0.01 70 1015.2
20260507151829 53 55 1.0 4.0 0.00 0.01 0.01 69 1015.3
20260507151335 53 49 2.0 8.0 0.00 0.01 0.01 69 1015.4
20260507150832 53 330 3.0 8.0 0.00 0.01 0.01 68 1015.3
20260507150341 53 326 2.0 6.0 0.00 0.01 0.01 70 1015.5
20260507145834 52 323 4.0 6.0 0.00 0.01 0.01 72 1015.5
20260507145324 53 332 4.0 8.0 0.00 0.01 0.01 71 1015.5
20260507144841 53 317 5.0 8.0 0.00 0.01 0.01 69 1015.4
20260507144330 53 327 4.0 6.0 0.00 0.01 0.01 71 1015.2
20260507143839 52 321 2.0 6.0 0.00 0.01 0.01 72 1014.9
20260507143327 51 331 4.0 6.0 0.00 0.01 0.01 74 1014.9
20260507142850 50 360 3.0 4.0 0.00 0.01 0.01 75 1014.7
20260507142340 50 297 1.0 4.0 0.00 0.01 0.01 74 1014.7
20260507141856 50 297 2.0 4.0 0.00 0.01 0.01 75 1014.6
20260507141344 49 298 1.0 5.0 0.00 0.01 0.01 77 1014.7
20260507140859 48 298 1.0 5.0 0.00 0.01 0.01 77 1014.6
20260507140337 48 323 3.0 4.0 0.00 0.01 0.01 79 1014.7
20260507135833 47 360 0.0 3.0 0.00 0.01 0.01 79 1014.5
20260507135343 47 11 1.0 2.0 0.00 0.01 0.01 78 1014.5
20260507134833 47 201 0.0 5.0 0.00 0.01 0.01 79 1014.6
20260507134335 47 203 1.0 8.0 0.00 0.01 0.01 79 1014.5
20260507133837 47 212 4.0 8.0 0.00 0.01 0.01 80 1014.3
20260507133353 46 203 4.0 6.0 0.00 0.01 0.01 81 1014.4
20260507132838 46 206 3.0 5.0 0.00 0.01 0.01 82 1014.4
20260507132346 45 206 3.0 4.0 0.00 0.01 0.01 83 1014.5
20260507131829 45 193 1.0 2.0 0.00 0.01 0.01 83 1014.5
20260507131349 45 194 0.0 2.0 0.00 0.01 0.01 83 1014.6
20260507130836 45 194 1.0 3.0 0.00 0.01 0.01 83 1014.6
20260507130324 45 192 0.0 6.0 0.00 0.01 0.01 82 1014.5
20260507125837 45 194 3.0 6.0 0.00 0.01 0.01 82 1014.4
20260507125411 45 177 2.0 7.0 0.00 0.01 0.01 82 1014.4
20260507124837 45 169 3.0 7.0 0.00 0.01 0.01 81 1014.3
20260507124344 45 175 3.0 7.0 0.00 0.01 0.01 80 1014.2
20260507123847 46 171 3.0 7.0 0.00 0.01 0.01 79 1014.1
20260507123331 47 172 4.0 7.0 0.00 0.01 0.01 78 1014.2
20260507122908 47 170 2.0 5.0 0.00 0.01 0.01 78 1014.2
20260507122335 47 205 1.0 8.0 0.00 0.01 0.01 77 1014.2
20260507121851 47 218 4.0 8.0 0.00 0.01 0.01 77 1014.2
20260507121340 48 213 5.0 9.0 0.00 0.01 0.01 77 1014.3
20260507120827 48 218 5.0 9.0 0.00 0.01 0.01 77 1014.2
20260507120330 48 209 4.0 7.0 0.00 0.01 0.01 77 1014.1
20260507115843 48 204 4.0 7.0 0.00 0.01 0.01 76 1014.2
20260507115337 48 192 4.0 5.0 0.00 0.01 0.01 76 1014.2
20260507114846 48 224 4.0 5.0 0.00 0.01 0.01 77 1014.2
20260507114341 48 232 3.0 5.0 0.00 0.01 0.01 77 1014.2
20260507113833 48 209 2.0 6.0 0.00 0.01 0.01 77 1014.2
20260507113356 48 190 2.0 6.0 0.00 0.01 0.01 77 1014.2
20260507112824 48 198 3.0 5.0 0.00 0.01 0.01 78 1014.4
20260507112354 48 193 1.0 4.0 0.00 0.01 0.01 78 1014.3
20260507111835 48 193 2.0 3.0 0.00 0.01 0.01 78 1014.4
20260507111353 48 194 1.0 3.0 0.00 0.01 0.01 78 1014.4
20260507110842 48 208 1.0 4.0 0.00 0.01 0.01 78 1014.4
20260507110328 48 209 2.0 7.0 0.00 0.01 0.01 78 1014.4
20260507105841 48 222 4.0 7.0 0.00 0.01 0.01 78 1014.5
20260507105333 48 240 2.0 3.0 0.01 0.01 0.01 79 1014.5
20260507104828 48 319 2.0 8.0 0.01 0.01 0.01 81 1014.6
20260507104332 49 97 0.0 8.0 0.01 0.01 0.01 80 1014.7
20260507103849 49 163 4.0 8.0 0.01 0.01 0.01 80 1014.9
20260507103337 49 184 3.0 7.0 0.01 0.01 0.01 80 1014.9
20260507102842 49 167 4.0 6.0 0.01 0.01 0.01 79 1015.0
20260507102327 50 74 2.0 3.0 0.01 0.01 0.01 77 1014.9
20260507101834 50 333 1.0 12.0 0.01 0.01 0.01 76 1014.7
20260507101323 50 329 3.0 15.0 0.01 0.01 0.01 75 1014.7
20260507100840 50 335 7.0 18.0 0.01 0.01 0.01 75 1014.8
20260507100342 50 314 11.0 22.0 0.01 0.01 0.01 74 1015.1
20260507095846 51 346 11.0 17.0 0.00 0.00 0.00 73 1015.0
20260507095338 53 294 10.0 17.0 0.00 0.00 0.00 67 1015.0
20260507094839 54 296 7.0 21.0 0.00 0.00 0.00 63 1015.0
20260507094355 55 333 13.0 21.0 0.00 0.00 0.00 60 1014.9
20260507093824 57 315 10.0 26.0 0.00 0.00 0.00 57 1014.6
20260507093400 57 301 10.0 26.0 0.00 0.00 0.00 56 1014.2
20260507092904 57 300 10.0 19.0 0.00 0.00 0.00 56 1014.2
20260507092358 56 244 8.0 19.0 0.00 0.00 0.00 55 1013.8
20260507091843 53 319 9.0 18.0 0.00 0.00 0.00 58 1013.6
20260507091332 52 323 3.0 8.0 0.00 0.00 0.00 59 1013.6
20260507090848 52 262 1.0 3.0 0.00 0.00 0.00 59 1013.4
20260507090342 52 137 1.0 6.0 0.00 0.00 0.00 58 1013.5
20260507085853 52 105 2.0 6.0 0.00 0.00 0.00 59 1013.4
20260507085345 52 177 0.0 2.0 0.00 0.00 0.00 58 1013.2
20260507084838 53 176 1.0 2.0 0.00 0.00 0.00 57 1013.2
20260507084325 53 176 1.0 7.0 0.00 0.00 0.00 56 1013.3
20260507083843 53 271 3.0 7.0 0.00 0.00 0.00 57 1013.3
20260507083328 53 194 1.0 6.0 0.00 0.00 0.00 56 1013.1
20260507082842 53 186 2.0 8.0 0.00 0.00 0.00 56 1013.1
20260507082345 53 205 4.0 8.0 0.00 0.00 0.00 56 1013.2
20260507081835 53 190 5.0 7.0 0.00 0.00 0.00 57 1013.2
20260507081344 53 161 3.0 9.0 0.00 0.00 0.00 57 1013.2
20260507080832 53 144 4.0 7.0 0.00 0.00 0.00 57 1013.2
20260507080341 53 167 2.0 5.0 0.00 0.00 0.00 57 1013.1
20260507075859 53 188 2.0 7.0 0.00 0.00 0.00 58 1013.0
20260507075346 53 201 3.0 7.0 0.00 0.00 0.00 58 1012.9
20260507074909 53 175 4.0 6.0 0.00 0.00 0.00 57 1013.0
20260507074330 53 215 3.0 6.0 0.00 0.00 0.00 57 1012.9
20260507073904 54 178 3.0 5.0 0.00 0.00 0.00 58 1012.8
20260507073359 54 168 4.0 5.0 0.00 0.00 0.00 57 1013.0
20260507072827 55 241 2.0 5.0 0.00 0.00 0.00 57 1013.0
20260507072335 55 213 2.0 7.0 0.00 0.00 0.00 56 1013.0
20260507071851 54 244 3.0 7.0 0.00 0.00 0.00 56 1013.0
20260507071335 54 246 3.0 5.0 0.00 0.00 0.00 57 1013.1
20260507070849 55 199 3.0 5.0 0.00 0.00 0.00 56 1013.0
20260507070335 55 216 2.0 5.0 0.00 0.00 0.00 56 1013.0
20260507065902 55 225 3.0 4.0 0.00 0.00 0.00 58 1013.1
20260507065337 55 157 1.0 2.0 0.00 0.00 0.00 57 1012.9
20260507064823 55 156 0.0 2.0 0.00 0.00 0.00 57 1013.0
20260507064336 55 157 1.0 2.0 0.00 0.00 0.00 56 1013.1
20260507063846 55 156 1.0 2.0 0.00 0.00 0.00 56 1013.1
20260507063348 55 157 0.0 1.0 0.00 0.00 0.00 56 1013.2
20260507062834 55 157 0.0 0.0 0.00 0.00 0.00 55 1013.4
20260507062323 55 157 0.0 1.0 0.00 0.00 0.00 55 1013.3
20260507061843 56 157 1.0 1.0 0.00 0.00 0.00 55 1013.3
20260507061332 56 157 0.0 2.0 0.00 0.00 0.00 54 1013.3
20260507060839 56 157 1.0 2.0 0.00 0.00 0.00 54 1013.2
20260507060337 56 159 1.0 3.0 0.00 0.00 0.00 53 1013.3
20260507055840 56 157 1.0 3.0 0.00 0.00 0.00 54 1013.4
20260507055329 56 156 0.0 2.0 0.00 0.00 0.00 53 1013.4
20260507054841 56 157 1.0 2.0 0.00 0.00 0.00 53 1013.3
20260507054328 57 157 1.0 3.0 0.00 0.00 0.00 53 1013.2
20260507053838 57 157 0.0 3.0 0.00 0.00 0.00 52 1013.3
20260507053326 57 156 0.0 2.0 0.00 0.00 0.00 52 1013.4
20260507052832 57 157 0.0 2.0 0.00 0.00 0.00 52 1013.5
20260507052345 57 157 1.0 5.0 0.00 0.00 0.00 54 1013.4
20260507051829 58 165 4.0 5.0 0.00 0.00 0.00 52 1013.4
20260507051347 58 282 2.0 3.0 0.00 0.00 0.00 51 1013.2
20260507050836 58 298 0.0 2.0 0.00 0.00 0.00 50 1013.3
20260507050354 59 302 0.0 2.0 0.00 0.00 0.00 50 1013.4
20260507045848 59 302 1.0 8.0 0.00 0.00 0.00 48 1013.3
20260507045337 59 313 2.0 21.0 0.00 0.00 0.00 48 1013.3
20260507044824 61 340 11.0 24.0 0.00 0.00 0.00 48 1013.2
20260507044338 61 289 10.0 24.0 0.00 0.00 0.00 43 1013.8
20260507043834 60 246 5.0 10.0 0.00 0.00 0.00 44 1013.6
20260507043335 60 192 2.0 6.0 0.00 0.00 0.00 45 1013.1
20260507042842 61 194 2.0 7.0 0.00 0.00 0.00 45 1013.0
20260507042332 61 195 3.0 7.0 0.00 0.00 0.00 44 1013.0
20260507041845 61 171 3.0 8.0 0.00 0.00 0.00 44 1013.0
20260507041334 61 246 4.0 14.0 0.00 0.00 0.00 43 1012.9
20260507040824 61 244 9.0 14.0 0.00 0.00 0.00 43 1013.0
20260507040334 61 234 6.0 22.0 0.00 0.00 0.00 43 1013.0
20260507035824 61 284 9.0 21.0 0.00 0.00 0.00 43 1012.8
20260507035339 62 215 6.0 19.0 0.00 0.00 0.00 44 1013.0
20260507034836 61 221 12.0 19.0 0.00 0.00 0.00 43 1012.9
20260507034329 62 200 7.0 18.0 0.00 0.00 0.00 43 1012.8
20260507033836 62 262 3.0 23.0 0.00 0.00 0.00 44 1012.9
20260507033325 61 172 7.0 12.0 0.00 0.00 0.00 44 1012.8
20260507032834 61 193 3.0 9.0 0.00 0.00 0.00 44 1012.7
20260507032324 61 166 4.0 9.0 0.00 0.00 0.00 44 1012.6
20260507031903 61 203 3.0 7.0 0.00 0.00 0.00 44 1012.6
20260507031330 62 169 3.0 7.0 0.00 0.00 0.00 43 1012.6
20260507030837 62 196 2.0 10.0 0.00 0.00 0.00 42 1012.5
20260507030338 62 177 5.0 11.0 0.00 0.00 0.00 42 1012.6
20260507025826 62 217 3.0 11.0 0.00 0.00 0.00 42 1012.5
20260507025332 63 202 5.0 16.0 0.00 0.00 0.00 42 1012.6
20260507024839 63 211 9.0 23.0 0.00 0.00 0.00 41 1012.6
20260507024326 63 279 11.0 23.0 0.00 0.00 0.00 40 1012.7
20260507023834 63 233 10.0 16.0 0.00 0.00 0.00 40 1012.6